Time,TemperatureF,DewpointF,PressureIn,WindDirection,WindDirectionDegrees,WindSpeedMPH,WindSpeedGustMPH,Humidity,HourlyPrecipIn,Conditions,Clouds,dailyrainin,SoftwareType,DateUTC
2013-09-22 00:06:00,78.3,75.2,29.91,SE,135,0.0,2.2,92,0.00,,,0.00,Graphweather,2013-09-22 04:06:00,
2013-09-22 00:07:00,78.4,75.2,29.91,SSE,157,0.0,1.6,92,0.00,,,0.00,Graphweather,2013-09-22 04:07:00,
2013-09-22 00:13:00,78.6,77.0,29.91,SSE,157,0.0,0.9,92,0.00,,,0.00,Graphweather,2013-09-22 04:13:00,
2013-09-22 00:18:00,78.6,77.0,29.91,ESE,112,0.0,0.0,92,0.00,,,0.00,Graphweather,2013-09-22 04:18:00,
2013-09-22 00:23:00,78.6,77.0,29.91,East,90,0.0,0.9,92,0.00,,,0.00,Graphweather,2013-09-22 04:23:00,
2013-09-22 00:27:00,78.6,77.0,29.91,SE,135,0.0,1.3,92,0.00,,,0.00,Graphweather,2013-09-22 04:27:00,
2013-09-22 00:40:00,78.6,77.0,29.91,SSE,157,0.0,1.6,92,0.00,,,0.00,Graphweather,2013-09-22 04:40:00,
2013-09-22 00:47:00,78.6,77.0,29.91,SSE,157,0.0,1.6,92,0.00,,,0.00,Graphweather,2013-09-22 04:47:00,
2013-09-22 00:52:00,78.6,77.0,29.91,SSE,157,0.0,2.0,92,0.00,,,0.00,Graphweather,2013-09-22 04:52:00,
2013-09-22 00:57:00,78.6,77.0,29.91,ESE,112,0.0,1.1,92,0.00,,,0.00,Graphweather,2013-09-22 04:57:00,
2013-09-22 01:03:00,78.4,75.2,29.88,ESE,112,0.0,0.0,92,0.00,,,0.00,Graphweather,2013-09-22 05:03:00,
2013-09-22 01:08:00,78.3,75.2,29.88,ESE,112,0.0,1.3,92,0.00,,,0.00,Graphweather,2013-09-22 05:08:00,
2013-09-22 01:13:00,78.3,75.2,29.88,SSE,157,1.1,2.2,92,0.00,,,0.00,Graphweather,2013-09-22 05:13:00,
2013-09-22 01:27:00,78.3,75.2,29.88,South,180,1.1,2.0,92,0.00,,,0.00,Graphweather,2013-09-22 05:27:00,
2013-09-22 01:33:00,78.3,77.0,29.85,SSE,157,1.1,2.5,93,0.00,,,0.00,Graphweather,2013-09-22 05:33:00,
2013-09-22 01:42:00,78.1,77.0,29.85,East,90,0.0,0.9,93,0.00,,,0.00,Graphweather,2013-09-22 05:42:00,
2013-09-22 01:47:00,78.1,77.0,29.85,East,90,0.0,1.6,93,0.00,,,0.00,Graphweather,2013-09-22 05:47:00,
2013-09-22 01:52:00,78.1,77.0,29.85,ESE,112,0.0,2.2,93,0.00,,,0.00,Graphweather,2013-09-22 05:52:00,
2013-09-22 01:58:00,78.1,77.0,29.85,ESE,112,0.0,2.2,93,0.00,,,0.00,Graphweather,2013-09-22 05:58:00,
2013-09-22 02:03:00,78.3,77.0,29.91,SSW,202,0.9,3.1,93,0.00,,,0.00,Graphweather,2013-09-22 06:03:00,
2013-09-22 02:08:00,78.3,77.0,29.91,South,180,1.1,2.5,93,0.00,,,0.00,Graphweather,2013-09-22 06:08:00,
2013-09-22 02:13:00,78.3,77.0,29.91,ESE,112,1.6,3.8,93,0.00,,,0.00,Graphweather,2013-09-22 06:13:00,
2013-09-22 02:22:00,78.3,77.0,29.88,ESE,112,1.6,2.5,93,0.00,,,0.00,Graphweather,2013-09-22 06:22:00,
2013-09-22 02:27:00,78.3,77.0,29.88,ESE,112,0.0,2.0,93,0.00,,,0.00,Graphweather,2013-09-22 06:27:00,
2013-09-22 02:40:00,78.3,77.0,29.85,SSE,157,1.1,4.0,93,0.00,,,0.00,Graphweather,2013-09-22 06:40:00,
2013-09-22 02:47:00,78.3,75.2,29.88,WNW,292,1.3,2.5,92,0.00,,,0.00,Graphweather,2013-09-22 06:47:00,
2013-09-22 02:52:00,78.3,75.2,29.88,ESE,112,0.9,3.4,92,0.00,,,0.00,Graphweather,2013-09-22 06:52:00,
2013-09-22 02:57:00,78.1,75.2,29.88,SSW,202,0.0,2.7,92,0.00,,,0.00,Graphweather,2013-09-22 06:57:00,
2013-09-22 03:02:00,78.1,75.2,29.91,SSW,202,0.0,2.5,92,0.00,,,0.00,Graphweather,2013-09-22 07:02:00,
2013-09-22 03:07:00,78.1,75.2,29.91,SSE,157,0.0,2.7,92,0.00,,,0.00,Graphweather,2013-09-22 07:07:00,
2013-09-22 03:12:00,78.1,75.2,29.91,SSE,157,1.6,3.6,92,0.00,,,0.00,Graphweather,2013-09-22 07:12:00,
2013-09-22 03:18:00,78.3,75.2,29.91,WSW,247,1.6,2.7,92,0.00,,,0.00,Graphweather,2013-09-22 07:18:00,
2013-09-22 03:23:00,78.3,75.2,29.91,ESE,112,1.1,3.4,92,0.00,,,0.00,Graphweather,2013-09-22 07:23:00,
2013-09-22 03:28:00,78.3,75.2,29.91,ESE,112,1.1,2.5,92,0.00,,,0.00,Graphweather,2013-09-22 07:28:00,
2013-09-22 03:33:00,78.1,75.2,29.88,SE,135,0.0,2.7,92,0.00,,,0.00,Graphweather,2013-09-22 07:33:00,
2013-09-22 03:38:00,78.1,75.2,29.88,ESE,112,0.0,2.5,92,0.00,,,0.00,Graphweather,2013-09-22 07:38:00,
2013-09-22 03:43:00,78.1,75.2,29.88,ESE,112,0.0,1.6,92,0.00,,,0.00,Graphweather,2013-09-22 07:43:00,
2013-09-22 03:52:00,78.3,75.2,29.85,SE,135,0.0,1.6,92,0.00,,,0.00,Graphweather,2013-09-22 07:52:00,
2013-09-22 03:57:00,78.1,75.2,29.85,East,90,0.0,3.4,92,0.00,,,0.00,Graphweather,2013-09-22 07:57:00,
2013-09-22 04:02:00,77.9,75.2,29.85,SSW,202,0.0,1.3,92,0.00,,,0.00,Graphweather,2013-09-22 08:02:00,
2013-09-22 04:07:00,77.9,75.2,29.85,SSE,157,0.0,2.5,92,0.00,,,0.00,Graphweather,2013-09-22 08:07:00,
2013-09-22 04:12:00,77.9,75.2,29.85,ESE,112,0.9,1.6,92,0.00,,,0.00,Graphweather,2013-09-22 08:12:00,
2013-09-22 04:17:00,77.9,75.2,29.88,ESE,112,0.0,2.0,92,0.00,,,0.00,Graphweather,2013-09-22 08:17:00,
2013-09-22 04:23:00,77.9,75.2,29.88,SSW,202,0.0,2.2,92,0.00,,,0.00,Graphweather,2013-09-22 08:23:00,
2013-09-22 04:28:00,77.7,75.2,29.88,SSE,157,0.0,1.6,92,0.00,,,0.00,Graphweather,2013-09-22 08:28:00,
2013-09-22 04:33:00,77.7,75.2,29.88,SSE,157,0.0,1.3,92,0.00,,,0.00,Graphweather,2013-09-22 08:33:00,
2013-09-22 04:38:00,77.7,75.2,29.88,SSE,157,0.0,1.6,92,0.00,,,0.00,Graphweather,2013-09-22 08:38:00,
2013-09-22 04:43:00,77.7,75.2,29.88,SE,135,0.0,2.0,92,0.00,,,0.00,Graphweather,2013-09-22 08:43:00,
2013-09-22 04:48:00,77.7,75.2,29.88,SW,225,0.0,2.7,92,0.00,,,0.00,Graphweather,2013-09-22 08:48:00,
2013-09-22 04:57:00,77.5,75.2,29.88,SSE,157,0.0,1.1,92,0.00,,,0.00,Graphweather,2013-09-22 08:57:00,
2013-09-22 05:02:00,77.5,75.2,29.88,SE,135,0.0,1.1,92,0.00,,,0.00,Graphweather,2013-09-22 09:02:00,
2013-09-22 05:07:00,77.5,75.2,29.88,SSE,157,0.0,1.6,92,0.00,,,0.00,Graphweather,2013-09-22 09:07:00,
2013-09-22 05:12:00,77.5,75.2,29.88,East,90,0.0,0.9,92,0.00,,,0.00,Graphweather,2013-09-22 09:12:00,
2013-09-22 05:17:00,77.5,75.2,29.88,South,180,0.0,1.1,92,0.00,,,0.00,Graphweather,2013-09-22 09:17:00,
2013-09-22 05:22:00,77.4,75.2,29.88,ESE,112,0.0,1.3,92,0.00,,,0.00,Graphweather,2013-09-22 09:22:00,
2013-09-22 05:28:00,77.4,75.2,29.88,SE,135,0.0,0.9,92,0.00,,,0.00,Graphweather,2013-09-22 09:28:00,
2013-09-22 05:33:00,77.4,75.2,29.91,ESE,112,0.0,1.1,92,0.00,,,0.00,Graphweather,2013-09-22 09:33:00,
2013-09-22 05:38:00,77.4,75.2,29.91,ESE,112,0.0,2.7,92,0.00,,,0.00,Graphweather,2013-09-22 09:38:00,
2013-09-22 05:43:00,77.4,75.2,29.91,SE,135,0.0,1.1,92,0.00,,,0.00,Graphweather,2013-09-22 09:43:00,
2013-09-22 05:48:00,77.4,75.2,29.91,SE,135,0.0,2.2,92,0.00,,,0.00,Graphweather,2013-09-22 09:48:00,
2013-09-22 05:53:00,77.4,75.2,29.91,ENE,67,0.0,1.1,92,0.00,,,0.00,Graphweather,2013-09-22 09:53:00,
2013-09-22 06:02:00,77.4,75.2,29.91,East,90,1.1,2.2,92,0.00,,,0.00,Graphweather,2013-09-22 10:02:00,
2013-09-22 06:07:00,77.5,75.2,29.91,ESE,112,0.0,1.6,92,0.00,,,0.00,Graphweather,2013-09-22 10:07:00,
2013-09-22 06:12:00,77.7,75.2,29.91,SSE,157,0.0,1.3,92,0.00,,,0.00,Graphweather,2013-09-22 10:12:00,
2013-09-22 06:17:00,78.1,75.2,29.91,East,90,0.0,2.2,92,0.00,,,0.00,Graphweather,2013-09-22 10:17:00,
2013-09-22 06:22:00,78.3,75.2,29.91,ESE,112,0.9,2.9,91,0.00,,,0.00,Graphweather,2013-09-22 10:22:00,
2013-09-22 06:28:00,78.8,75.2,29.91,East,90,0.0,2.0,90,0.00,,,0.00,Graphweather,2013-09-22 10:28:00,
2013-09-22 06:33:00,79.2,77.0,29.91,East,90,0.0,1.6,90,0.00,,,0.00,Graphweather,2013-09-22 10:33:00,
2013-09-22 06:38:00,81.1,78.8,29.91,East,90,0.0,1.6,89,0.00,,,0.00,Graphweather,2013-09-22 10:38:00,
2013-09-22 06:43:00,81.9,78.8,29.91,East,90,1.1,2.7,88,0.00,,,0.00,Graphweather,2013-09-22 10:43:00,
2013-09-22 06:48:00,82.6,78.8,29.94,ESE,112,0.9,3.4,87,0.00,,,0.00,Graphweather,2013-09-22 10:48:00,
2013-09-22 06:57:00,84.6,78.8,29.94,East,90,1.1,2.5,83,0.00,,,0.00,Graphweather,2013-09-22 10:57:00,
2013-09-22 07:02:00,85.1,78.8,29.94,SSW,202,0.9,3.4,81,0.00,,,0.00,Graphweather,2013-09-22 11:02:00,
2013-09-22 07:07:00,86.4,78.8,29.94,SSE,157,1.3,2.7,79,0.00,,,0.00,Graphweather,2013-09-22 11:07:00,
2013-09-22 07:12:00,86.9,78.8,29.94,ESE,112,1.6,3.6,75,0.00,,,0.00,Graphweather,2013-09-22 11:12:00,
2013-09-22 07:18:00,87.1,78.8,29.97,ENE,67,1.6,5.8,76,0.00,,,0.00,Graphweather,2013-09-22 11:18:00,
2013-09-22 07:23:00,87.8,78.8,29.97,East,90,1.6,5.8,74,0.00,,,0.00,Graphweather,2013-09-22 11:23:00,
2013-09-22 07:28:00,87.8,78.8,29.97,East,90,2.2,4.7,72,0.00,,,0.00,Graphweather,2013-09-22 11:28:00,
2013-09-22 07:33:00,88.3,78.8,29.94,ENE,67,2.0,2.9,72,0.00,,,0.00,Graphweather,2013-09-22 11:33:00,
2013-09-22 07:38:00,89.6,80.6,29.94,SSE,157,0.0,3.1,72,0.00,,,0.00,Graphweather,2013-09-22 11:38:00,
2013-09-22 07:47:00,91.0,78.8,29.94,East,90,2.2,3.1,68,0.00,,,0.00,Graphweather,2013-09-22 11:47:00,
2013-09-22 07:52:00,91.8,78.8,29.94,East,90,2.5,3.4,66,0.00,,,0.00,Graphweather,2013-09-22 11:52:00,
2013-09-22 07:57:00,92.8,78.8,29.94,East,90,1.3,3.8,65,0.00,,,0.00,Graphweather,2013-09-22 11:57:00,
2013-09-22 08:02:00,93.4,78.8,29.91,ESE,112,1.3,4.3,63,0.00,,,0.00,Graphweather,2013-09-22 12:02:00,
2013-09-22 08:08:00,93.4,78.8,29.91,ESE,112,2.0,4.3,62,0.00,,,0.00,Graphweather,2013-09-22 12:08:00,
2013-09-22 08:13:00,92.8,78.8,29.91,East,90,1.1,4.3,63,0.00,,,0.00,Graphweather,2013-09-22 12:13:00,
2013-09-22 08:18:00,92.7,77.0,29.94,NE,45,2.5,4.5,62,0.00,,,0.00,Graphweather,2013-09-22 12:18:00,
2013-09-22 08:23:00,90.0,77.0,29.94,SE,135,2.0,4.0,64,0.00,,,0.00,Graphweather,2013-09-22 12:23:00,
2013-09-22 08:28:00,90.9,78.8,29.94,SE,135,0.9,3.1,66,0.00,,,0.00,Graphweather,2013-09-22 12:28:00,
2013-09-22 08:37:00,91.9,77.0,29.94,ESE,112,2.0,3.8,63,0.00,,,0.00,Graphweather,2013-09-22 12:37:00,
2013-09-22 08:42:00,94.1,78.8,29.94,ENE,67,3.1,3.6,61,0.00,,,0.00,Graphweather,2013-09-22 12:42:00,
2013-09-22 08:47:00,92.8,77.0,29.97,East,90,2.5,5.8,62,0.00,,,0.00,Graphweather,2013-09-22 12:47:00,
2013-09-22 08:53:00,93.9,78.8,29.97,ENE,67,1.6,4.3,61,0.00,,,0.00,Graphweather,2013-09-22 12:53:00,
2013-09-22 08:58:00,95.5,78.8,29.97,East,90,2.7,4.7,59,0.00,,,0.00,Graphweather,2013-09-22 12:58:00,
2013-09-22 09:03:00,96.4,78.8,29.97,East,90,2.9,4.0,58,0.00,,,0.00,Graphweather,2013-09-22 13:03:00,
2013-09-22 09:08:00,96.4,78.8,29.97,ESE,112,2.0,4.0,57,0.00,,,0.00,Graphweather,2013-09-22 13:08:00,
2013-09-22 09:13:00,97.0,78.8,29.97,East,90,2.2,3.6,55,0.00,,,0.00,Graphweather,2013-09-22 13:13:00,
2013-09-22 09:22:00,96.6,78.8,29.97,East,90,2.2,4.0,55,0.00,,,0.00,Graphweather,2013-09-22 13:22:00,
2013-09-22 09:27:00,96.6,78.8,29.97,East,90,2.7,3.6,54,0.00,,,0.00,Graphweather,2013-09-22 13:27:00,
2013-09-22 09:32:00,97.0,78.8,29.97,NE,45,2.2,4.7,54,0.00,,,0.00,Graphweather,2013-09-22 13:32:00,
2013-09-22 09:37:00,97.2,77.0,29.97,East,90,2.7,5.6,53,0.00,,,0.00,Graphweather,2013-09-22 13:37:00,
2013-09-22 09:43:00,97.5,77.0,29.97,SSW,202,2.7,4.7,53,0.00,,,0.00,Graphweather,2013-09-22 13:43:00,
2013-09-22 09:48:00,98.1,77.0,29.94,East,90,2.7,3.4,52,0.00,,,0.00,Graphweather,2013-09-22 13:48:00,
2013-09-22 09:53:00,98.2,77.0,29.94,South,180,2.7,4.9,51,0.00,,,0.00,Graphweather,2013-09-22 13:53:00,
2013-09-22 09:58:00,98.2,77.0,29.94,East,90,0.0,3.8,51,0.00,,,0.00,Graphweather,2013-09-22 13:58:00,
2013-09-22 10:07:00,99.7,77.0,29.97,East,90,2.2,3.4,49,0.00,,,0.00,Graphweather,2013-09-22 14:07:00,
2013-09-22 10:12:00,100.0,77.0,29.97,SSE,157,2.9,3.8,48,0.00,,,0.00,Graphweather,2013-09-22 14:12:00,
2013-09-22 10:17:00,99.7,77.0,29.97,ENE,67,2.5,5.4,48,0.00,,,0.00,Graphweather,2013-09-22 14:17:00,
2013-09-22 10:23:00,99.3,75.2,29.97,NE,45,2.5,5.4,47,0.00,,,0.00,Graphweather,2013-09-22 14:23:00,
2013-09-22 10:28:00,99.3,77.0,29.97,East,90,2.0,3.8,48,0.00,,,0.00,Graphweather,2013-09-22 14:28:00,
2013-09-22 10:33:00,99.5,77.0,29.94,ESE,112,2.7,4.3,47,0.00,,,0.00,Graphweather,2013-09-22 14:33:00,
2013-09-22 10:38:00,99.5,75.2,29.94,East,90,2.5,4.0,46,0.00,,,0.00,Graphweather,2013-09-22 14:38:00,
2013-09-22 10:47:00,99.3,75.2,29.94,ESE,112,2.7,4.0,46,0.00,,,0.00,Graphweather,2013-09-22 14:47:00,
2013-09-22 10:52:00,99.7,75.2,29.94,SE,135,1.3,4.0,46,0.00,,,0.00,Graphweather,2013-09-22 14:52:00,
2013-09-22 10:57:00,99.9,75.2,29.94,South,180,2.2,3.6,45,0.00,,,0.00,Graphweather,2013-09-22 14:57:00,
2013-09-22 11:03:00,100.0,75.2,29.94,East,90,2.0,3.8,45,0.00,,,0.00,Graphweather,2013-09-22 15:03:00,
2013-09-22 11:08:00,99.7,75.2,29.94,East,90,2.7,4.7,45,0.00,,,0.00,Graphweather,2013-09-22 15:08:00,
2013-09-22 11:13:00,99.3,75.2,29.94,ESE,112,2.9,4.5,46,0.00,,,0.00,Graphweather,2013-09-22 15:13:00,
2013-09-22 11:18:00,100.0,75.2,29.94,SE,135,1.6,3.4,46,0.00,,,0.00,Graphweather,2013-09-22 15:18:00,
2013-09-22 11:23:00,100.0,75.2,29.94,East,90,2.5,5.4,46,0.00,,,0.00,Graphweather,2013-09-22 15:23:00,
2013-09-22 11:32:00,100.6,77.0,29.94,East,90,2.2,4.0,46,0.00,,,0.00,Graphweather,2013-09-22 15:32:00,
2013-09-22 11:37:00,99.9,77.0,29.94,SE,135,2.5,4.3,47,0.00,,,0.00,Graphweather,2013-09-22 15:37:00,
2013-09-22 11:42:00,99.9,77.0,29.94,SSE,157,2.2,3.8,48,0.00,,,0.00,Graphweather,2013-09-22 15:42:00,
2013-09-22 11:48:00,99.9,77.0,29.94,East,90,2.5,3.8,48,0.00,,,0.00,Graphweather,2013-09-22 15:48:00,
2013-09-22 11:53:00,99.3,75.2,29.94,East,90,2.2,3.6,47,0.00,,,0.00,Graphweather,2013-09-22 15:53:00,
2013-09-22 11:58:00,98.8,75.2,29.94,East,90,2.7,3.6,48,0.00,,,0.00,Graphweather,2013-09-22 15:58:00,
2013-09-22 12:03:00,99.3,77.0,29.94,East,90,1.6,4.9,49,0.00,,,0.00,Graphweather,2013-09-22 16:03:00,
2013-09-22 12:12:00,99.3,77.0,29.94,East,90,1.3,3.1,49,0.00,,,0.00,Graphweather,2013-09-22 16:12:00,
2013-09-22 12:17:00,99.3,77.0,29.91,ESE,112,1.6,4.0,49,0.00,,,0.00,Graphweather,2013-09-22 16:17:00,
2013-09-22 12:22:00,99.3,77.0,29.91,East,90,3.1,6.0,49,0.00,,,0.00,Graphweather,2013-09-22 16:22:00,
2013-09-22 12:28:00,99.0,77.0,29.91,East,90,2.0,3.8,49,0.00,,,0.00,Graphweather,2013-09-22 16:28:00,
2013-09-22 12:33:00,99.0,77.0,29.94,East,90,1.6,5.4,50,0.00,,,0.00,Graphweather,2013-09-22 16:33:00,
2013-09-22 12:38:00,99.1,77.0,29.94,East,90,2.2,4.0,50,0.00,,,0.00,Graphweather,2013-09-22 16:38:00,
2013-09-22 12:43:00,98.8,77.0,29.94,East,90,2.5,4.0,50,0.00,,,0.00,Graphweather,2013-09-22 16:43:00,
2013-09-22 12:52:00,99.0,77.0,29.94,East,90,2.7,4.3,50,0.00,,,0.00,Graphweather,2013-09-22 16:52:00,
2013-09-22 12:57:00,97.5,77.0,29.94,ESE,112,2.2,4.9,52,0.00,,,0.00,Graphweather,2013-09-22 16:57:00,
2013-09-22 13:02:00,98.2,77.0,29.94,East,90,2.9,4.0,52,0.00,,,0.00,Graphweather,2013-09-22 17:02:00,
2013-09-22 13:08:00,99.0,78.8,29.94,South,180,2.0,4.3,51,0.00,,,0.00,Graphweather,2013-09-22 17:08:00,
2013-09-22 13:13:00,99.3,77.0,29.94,SE,135,2.5,4.7,50,0.00,,,0.00,Graphweather,2013-09-22 17:13:00,
2013-09-22 13:18:00,99.1,77.0,29.91,ENE,67,2.5,4.3,50,0.00,,,0.00,Graphweather,2013-09-22 17:18:00,
2013-09-22 13:23:00,99.3,77.0,29.91,NE,45,2.2,4.3,50,0.00,,,0.00,Graphweather,2013-09-22 17:23:00,
2013-09-22 13:28:00,98.4,77.0,29.91,NE,45,3.1,3.6,50,0.00,,,0.00,Graphweather,2013-09-22 17:28:00,
2013-09-22 13:37:00,99.1,77.0,29.91,East,90,2.0,3.8,50,0.00,,,0.00,Graphweather,2013-09-22 17:37:00,
2013-09-22 13:42:00,97.9,77.0,29.91,ESE,112,2.2,3.1,51,0.00,,,0.00,Graphweather,2013-09-22 17:42:00,
2013-09-22 13:54:00,99.3,77.0,29.91,East,90,1.6,3.1,50,0.00,,,0.00,Graphweather,2013-09-22 17:54:00,
2013-09-22 14:02:00,99.3,77.0,29.91,SSE,157,1.3,4.3,50,0.00,,,0.00,Graphweather,2013-09-22 18:02:00,
2013-09-22 14:08:00,99.7,78.8,29.91,SW,225,3.4,4.7,50,0.00,,,0.00,Graphweather,2013-09-22 18:08:00,
2013-09-22 14:13:00,99.7,77.0,29.91,ENE,67,2.0,2.9,49,0.00,,,0.00,Graphweather,2013-09-22 18:13:00,
2013-09-22 14:18:00,99.7,77.0,29.91,East,90,2.2,3.4,49,0.00,,,0.00,Graphweather,2013-09-22 18:18:00,
2013-09-22 14:23:00,100.2,78.8,29.91,East,90,1.6,3.1,49,0.00,,,0.00,Graphweather,2013-09-22 18:23:00,
2013-09-22 14:32:00,99.9,77.0,29.91,SSE,157,2.5,3.8,48,0.00,,,0.00,Graphweather,2013-09-22 18:32:00,
2013-09-22 14:37:00,99.5,77.0,29.91,East,90,1.6,3.4,48,0.00,,,0.00,Graphweather,2013-09-22 18:37:00,
2013-09-22 14:42:00,99.5,77.0,29.91,East,90,2.7,3.8,49,0.00,,,0.00,Graphweather,2013-09-22 18:42:00,
2013-09-22 14:48:00,99.0,77.0,29.91,ESE,112,2.2,3.6,48,0.00,,,0.00,Graphweather,2013-09-22 18:48:00,
2013-09-22 14:53:00,99.1,77.0,29.91,ENE,67,2.2,3.4,49,0.00,,,0.00,Graphweather,2013-09-22 18:53:00,
2013-09-22 14:58:00,98.8,77.0,29.91,ESE,112,2.0,4.9,49,0.00,,,0.00,Graphweather,2013-09-22 18:58:00,
2013-09-22 15:03:00,99.0,77.0,29.91,ENE,67,2.2,2.7,50,0.00,,,0.00,Graphweather,2013-09-22 19:03:00,
2013-09-22 15:08:00,99.0,77.0,29.91,SSE,157,2.5,4.0,50,0.00,,,0.00,Graphweather,2013-09-22 19:08:00,
2013-09-22 15:17:00,97.3,77.0,29.91,SSE,157,1.1,3.1,51,0.00,,,0.00,Graphweather,2013-09-22 19:17:00,
2013-09-22 15:22:00,97.9,77.0,29.91,NNE,22,1.6,2.5,51,0.00,,,0.00,Graphweather,2013-09-22 19:22:00,
2013-09-22 15:27:00,98.1,77.0,29.91,ENE,67,1.3,3.6,51,0.00,,,0.00,Graphweather,2013-09-22 19:27:00,
2013-09-22 15:33:00,97.7,77.0,29.91,ENE,67,1.6,3.4,52,0.00,,,0.00,Graphweather,2013-09-22 19:33:00,
2013-09-22 15:38:00,97.9,77.0,29.91,SE,135,1.3,2.9,52,0.00,,,0.00,Graphweather,2013-09-22 19:38:00,
2013-09-22 15:43:00,97.0,77.0,29.91,East,90,2.0,3.1,52,0.00,,,0.00,Graphweather,2013-09-22 19:43:00,
2013-09-22 15:48:00,97.0,77.0,29.91,East,90,1.6,2.7,52,0.00,,,0.00,Graphweather,2013-09-22 19:48:00,
2013-09-22 15:57:00,95.0,77.0,29.91,ESE,112,2.0,3.6,55,0.00,,,0.00,Graphweather,2013-09-22 19:57:00,
2013-09-22 16:02:00,93.2,77.0,29.91,ESE,112,1.3,2.9,58,0.00,,,0.00,Graphweather,2013-09-22 20:02:00,
2013-09-22 16:07:00,91.0,75.2,29.91,ESE,112,1.1,4.7,61,0.00,,,0.00,Graphweather,2013-09-22 20:07:00,
2013-09-22 16:13:00,90.1,77.0,29.91,South,180,1.6,2.9,63,0.00,,,0.00,Graphweather,2013-09-22 20:13:00,
2013-09-22 16:18:00,90.1,77.0,29.91,East,90,1.6,4.3,65,0.00,,,0.00,Graphweather,2013-09-22 20:18:00,
2013-09-22 16:23:00,89.6,77.0,29.91,ENE,67,2.2,3.6,67,0.00,,,0.00,Graphweather,2013-09-22 20:23:00,
2013-09-22 16:28:00,88.0,77.0,29.91,NE,45,2.9,4.5,69,0.00,,,0.00,Graphweather,2013-09-22 20:28:00,
2013-09-22 16:33:00,87.3,77.0,29.91,East,90,2.0,4.0,72,0.00,,,0.00,Graphweather,2013-09-22 20:33:00,
2013-09-22 16:42:00,85.8,77.0,29.91,East,90,2.7,5.6,76,0.00,,,0.00,Graphweather,2013-09-22 20:42:00,
2013-09-22 16:47:00,85.5,77.0,29.91,East,90,1.1,2.9,77,0.00,,,0.00,Graphweather,2013-09-22 20:47:00,
2013-09-22 16:52:00,85.5,77.0,29.91,WSW,247,2.0,4.3,78,0.00,,,0.00,Graphweather,2013-09-22 20:52:00,
2013-09-22 16:58:00,84.9,77.0,29.91,ENE,67,2.0,5.8,78,0.00,,,0.00,Graphweather,2013-09-22 20:58:00,
2013-09-22 17:03:00,84.6,77.0,29.91,East,90,0.9,4.3,79,0.00,,,0.00,Graphweather,2013-09-22 21:03:00,
2013-09-22 17:08:00,84.6,78.8,29.91,East,90,1.3,3.6,80,0.00,,,0.00,Graphweather,2013-09-22 21:08:00,
2013-09-22 17:13:00,84.6,78.8,29.91,ENE,67,1.6,5.4,80,0.00,,,0.00,Graphweather,2013-09-22 21:13:00,
2013-09-22 17:18:00,84.6,78.8,29.94,East,90,2.0,2.9,80,0.00,,,0.00,Graphweather,2013-09-22 21:18:00,
2013-09-22 17:27:00,83.8,77.0,29.94,East,90,2.5,5.6,81,0.00,,,0.00,Graphweather,2013-09-22 21:27:00,
2013-09-22 17:32:00,83.8,78.8,29.91,ESE,112,2.5,3.8,82,0.00,,,0.00,Graphweather,2013-09-22 21:32:00,
2013-09-22 17:37:00,83.7,78.8,29.91,ENE,67,2.0,3.6,82,0.00,,,0.00,Graphweather,2013-09-22 21:37:00,
2013-09-22 17:43:00,83.5,78.8,29.91,NNE,22,2.0,3.8,83,0.00,,,0.00,Graphweather,2013-09-22 21:43:00,
2013-09-22 17:48:00,83.3,78.8,29.94,ESE,112,2.0,4.7,83,0.00,,,0.00,Graphweather,2013-09-22 21:48:00,
2013-09-22 17:53:00,83.1,77.0,29.94,ESE,112,2.2,3.6,83,0.00,,,0.00,Graphweather,2013-09-22 21:53:00,
2013-09-22 17:58:00,82.9,78.8,29.94,East,90,2.0,4.0,84,0.00,,,0.00,Graphweather,2013-09-22 21:58:00,
2013-09-22 18:03:00,82.8,78.8,29.94,East,90,2.2,4.0,84,0.00,,,0.00,Graphweather,2013-09-22 22:03:00,
2013-09-22 18:12:00,82.6,78.8,29.94,East,90,1.3,2.7,85,0.00,,,0.00,Graphweather,2013-09-22 22:12:00,
2013-09-22 18:17:00,82.4,78.8,29.94,ENE,67,2.0,4.3,86,0.00,,,0.00,Graphweather,2013-09-22 22:17:00,
2013-09-22 18:22:00,82.2,78.8,29.94,East,90,0.9,5.8,86,0.00,,,0.00,Graphweather,2013-09-22 22:22:00,
2013-09-22 18:27:00,82.0,77.0,29.94,NE,45,2.0,3.6,86,0.00,,,0.00,Graphweather,2013-09-22 22:27:00,
2013-09-22 18:33:00,82.0,77.0,29.94,WNW,292,1.6,3.1,86,0.00,,,0.00,Graphweather,2013-09-22 22:33:00,
2013-09-22 18:38:00,82.0,78.8,29.94,East,90,2.7,7.4,87,0.00,,,0.00,Graphweather,2013-09-22 22:38:00,
2013-09-22 18:43:00,81.9,77.0,29.94,ESE,112,2.0,4.0,86,0.00,,,0.00,Graphweather,2013-09-22 22:43:00,
2013-09-22 18:48:00,81.9,77.0,29.91,SSW,202,2.5,4.3,86,0.00,,,0.00,Graphweather,2013-09-22 22:48:00,
2013-09-22 18:57:00,81.9,77.0,29.91,East,90,2.7,4.0,86,0.00,,,0.00,Graphweather,2013-09-22 22:57:00,
2013-09-22 19:03:00,81.9,77.0,29.94,ENE,67,2.0,4.7,86,0.00,,,0.00,Graphweather,2013-09-22 23:03:00,
2013-09-22 19:08:00,81.9,77.0,29.94,SSW,202,1.6,6.3,86,0.00,,,0.00,Graphweather,2013-09-22 23:08:00,
2013-09-22 19:13:00,81.9,77.0,29.94,NE,45,1.1,5.6,86,0.00,,,0.00,Graphweather,2013-09-22 23:13:00,
2013-09-22 19:18:00,81.7,78.8,29.94,ESE,112,2.0,4.9,87,0.00,,,0.00,Graphweather,2013-09-22 23:18:00,
2013-09-22 19:27:00,81.9,78.8,29.94,WSW,247,2.0,4.3,88,0.00,,,0.00,Graphweather,2013-09-22 23:27:00,
2013-09-22 19:38:00,80.2,77.0,29.94,ESE,112,0.0,3.1,92,0.00,,,0.00,Graphweather,2013-09-22 23:38:00,
2013-09-22 19:47:00,79.5,77.0,29.94,ESE,112,1.6,4.0,93,0.00,,,0.00,Graphweather,2013-09-22 23:47:00,
2013-09-22 19:52:00,79.2,77.0,29.94,East,90,2.2,3.8,93,0.00,,,0.00,Graphweather,2013-09-22 23:52:00,
2013-09-22 19:57:00,79.0,77.0,29.94,ESE,112,1.3,4.9,94,0.00,,,0.00,Graphweather,2013-09-22 23:57:00,